Location: Aulnoy
(48.8410°N, 3.0967°E)
Time: 01:15:30
(UTC+00:00)

Envisat - Pass Details

Date: 01 March 2024
Orbit: 762 x 764 km, 98.3° (Epoch: 12 April)

Event Time Altitude Azimuth Distance (km) Brightness Sun altitude
Rises 03:40:13 0° 12° (NNE) 3,242 6.7 -28.1°
Reaches altitude 10° 03:42:33 10° 10° (N) 2,311 5.8 -27.7°
Enters shadow 03:46:35 53° 344° (NNW) 934 3.4 -27.1°
